Time,TemperatureF,DewpointF,PressureIn,WindDirection,WindDirectionDegrees,WindSpeedMPH,WindSpeedGustMPH,Humidity,HourlyPrecipIn,Conditions,Clouds,dailyrainin,SoftwareType,DateUTC
2013-03-26 00:00:00,48.4,37.9,29.78,NNW,337,2.7,9.6,67,0.00,,,0.00,WUHU21623XXSP,2013-03-26 07:00:00,
2013-03-26 00:05:00,48.0,37.5,29.78,NNW,337,4.9,7.4,67,0.00,,,0.00,WUHU21623XXSP,2013-03-26 07:05:00,
2013-03-26 00:10:00,48.0,37.9,29.78,NNW,337,2.9,9.4,68,0.00,,,0.00,WUHU21623XXSP,2013-03-26 07:10:00,
2013-03-26 00:15:00,47.8,38.1,29.78,NNW,337,3.6,9.4,69,0.00,,,0.00,WUHU21623XXSP,2013-03-26 07:15:00,
2013-03-26 00:20:00,47.7,38.0,29.78,NNW,337,4.5,9.4,69,0.00,,,0.00,WUHU21623XXSP,2013-03-26 07:20:00,
2013-03-26 00:25:00,47.5,37.8,29.78,NNW,337,3.4,8.3,69,0.00,,,0.00,WUHU21623XXSP,2013-03-26 07:25:00,
2013-03-26 00:30:00,47.3,38.0,29.78,WNW,292,2.0,6.3,70,0.00,,,0.00,WUHU21623XXSP,2013-03-26 07:30:00,
2013-03-26 00:35:00,47.1,37.9,29.78,WNW,292,1.8,5.4,70,0.00,,,0.00,WUHU21623XXSP,2013-03-26 07:35:00,
2013-03-26 00:40:00,47.1,37.9,29.78,WNW,292,0.0,4.9,70,0.00,,,0.00,WUHU21623XXSP,2013-03-26 07:40:00,
2013-03-26 00:45:00,46.9,37.7,29.78,WNW,292,1.6,4.9,70,0.00,,,0.00,WUHU21623XXSP,2013-03-26 07:45:00,
2013-03-26 00:50:00,46.9,38.0,29.78,NNW,337,3.4,6.5,71,0.00,,,0.00,WUHU21623XXSP,2013-03-26 07:50:00,
2013-03-26 00:55:00,46.9,38.0,29.78,NNW,337,1.6,6.5,71,0.00,,,0.00,WUHU21623XXSP,2013-03-26 07:55:00,
2013-03-26 01:00:00,46.8,37.9,29.78,WNW,292,2.7,5.1,71,0.00,,,0.00,WUHU21623XXSP,2013-03-26 08:00:00,
2013-03-26 01:05:00,46.6,38.4,29.79,NW,315,3.8,8.3,73,0.00,,,0.00,WUHU21623XXSP,2013-03-26 08:05:00,
2013-03-26 01:10:00,46.6,38.4,29.79,NW,315,4.3,8.5,73,0.00,,,0.00,WUHU21623XXSP,2013-03-26 08:10:00,
2013-03-26 01:15:00,46.4,38.6,29.79,NNW,337,3.4,8.5,74,0.00,,,0.00,WUHU21623XXSP,2013-03-26 08:15:00,
2013-03-26 01:20:00,46.2,38.4,29.78,North,0,2.5,7.8,74,0.00,,,0.00,WUHU21623XXSP,2013-03-26 08:20:00,
2013-03-26 01:25:00,46.2,38.4,29.77,North,0,0.0,7.8,74,0.00,,,0.00,WUHU21623XXSP,2013-03-26 08:25:00,
2013-03-26 01:31:00,46.2,38.4,29.78,North,0,0.0,4.7,74,0.00,,,0.00,WUHU21623XXSP,2013-03-26 08:31:00,
2013-03-26 01:36:00,46.2,38.4,29.78,North,0,5.4,6.7,74,0.00,,,0.00,WUHU21623XXSP,2013-03-26 08:36:00,
2013-03-26 01:41:00,46.2,38.4,29.78,NNW,337,8.3,8.5,74,0.00,,,0.00,WUHU21623XXSP,2013-03-26 08:41:00,
2013-03-26 01:46:00,46.0,38.2,29.78,NNW,337,0.0,8.5,74,0.00,,,0.00,WUHU21623XXSP,2013-03-26 08:46:00,
2013-03-26 01:51:00,46.0,38.6,29.78,NNW,337,3.6,6.0,75,0.00,,,0.00,WUHU21623XXSP,2013-03-26 08:51:00,
2013-03-26 01:56:00,46.0,38.6,29.78,NNW,337,0.0,5.6,75,0.00,,,0.00,WUHU21623XXSP,2013-03-26 08:56:00,
2013-03-26 02:01:00,46.0,38.6,29.78,NNW,337,2.7,6.9,75,0.00,,,0.00,WUHU21623XXSP,2013-03-26 09:01:00,
2013-03-26 02:06:00,45.7,38.2,29.78,NNW,337,0.0,6.9,75,0.00,,,0.00,WUHU21623XXSP,2013-03-26 09:06:00,
2013-03-26 02:11:00,45.7,38.2,29.79,NNW,337,0.0,2.7,75,0.00,,,0.00,WUHU21623XXSP,2013-03-26 09:11:00,
2013-03-26 02:16:00,45.7,38.2,29.78,NNW,337,2.2,5.1,75,0.00,,,0.00,WUHU21623XXSP,2013-03-26 09:16:00,
2013-03-26 02:21:00,45.7,38.2,29.78,NNW,337,1.1,5.8,75,0.00,,,0.00,WUHU21623XXSP,2013-03-26 09:21:00,
2013-03-26 02:26:00,45.5,38.0,29.78,NNW,337,0.0,5.8,75,0.00,,,0.00,WUHU21623XXSP,2013-03-26 09:26:00,
2013-03-26 02:31:00,45.3,37.9,29.78,NNW,337,0.0,2.7,75,0.00,,,0.00,WUHU21623XXSP,2013-03-26 09:31:00,
2013-03-26 02:36:00,45.1,37.7,29.78,NNW,337,0.0,0.0,75,0.00,,,0.00,WUHU21623XXSP,2013-03-26 09:36:00,
2013-03-26 02:41:00,45.0,37.5,29.79,NNW,337,0.0,3.1,75,0.00,,,0.00,WUHU21623XXSP,2013-03-26 09:41:00,
2013-03-26 02:46:00,45.0,37.5,29.79,NNW,337,0.0,5.6,75,0.00,,,0.00,WUHU21623XXSP,2013-03-26 09:46:00,
2013-03-26 02:51:00,45.0,37.5,29.79,NNW,337,1.6,5.6,75,0.00,,,0.00,WUHU21623XXSP,2013-03-26 09:51:00,
2013-03-26 02:56:00,45.0,37.8,29.79,NNW,337,0.0,4.0,76,0.00,,,0.00,WUHU21623XXSP,2013-03-26 09:56:00,
2013-03-26 03:01:00,45.0,37.8,29.78,NNW,337,0.0,3.6,76,0.00,,,0.00,WUHU21623XXSP,2013-03-26 10:01:00,
2013-03-26 03:06:00,45.0,37.8,29.78,NNW,337,0.0,3.6,76,0.00,,,0.00,WUHU21623XXSP,2013-03-26 10:06:00,
2013-03-26 03:11:00,45.0,37.8,29.78,NNW,337,0.0,1.1,76,0.00,,,0.00,WUHU21623XXSP,2013-03-26 10:11:00,
2013-03-26 03:16:00,45.0,37.8,29.78,NNW,337,0.0,0.0,76,0.00,,,0.00,WUHU21623XXSP,2013-03-26 10:16:00,
2013-03-26 03:21:00,44.8,37.7,29.77,NNW,337,0.0,0.0,76,0.00,,,0.00,WUHU21623XXSP,2013-03-26 10:21:00,
2013-03-26 03:26:00,44.6,37.1,29.77,NNW,337,0.0,0.0,75,0.00,,,0.00,WUHU21623XXSP,2013-03-26 10:26:00,
2013-03-26 03:31:00,44.6,37.1,29.78,NNW,337,0.0,0.0,75,0.00,,,0.00,WUHU21623XXSP,2013-03-26 10:31:00,
2013-03-26 03:36:00,44.6,37.1,29.78,NNW,337,0.0,0.0,75,0.00,,,0.00,WUHU21623XXSP,2013-03-26 10:36:00,
2013-03-26 03:41:00,44.6,37.5,29.77,NNW,337,0.0,0.0,76,0.00,,,0.00,WUHU21623XXSP,2013-03-26 10:41:00,
2013-03-26 03:46:00,44.4,37.3,29.78,NNW,337,0.0,0.0,76,0.00,,,0.00,WUHU21623XXSP,2013-03-26 10:46:00,
2013-03-26 03:51:00,44.4,37.3,29.78,NNW,337,0.0,0.0,76,0.00,,,0.00,WUHU21623XXSP,2013-03-26 10:51:00,
2013-03-26 03:56:00,44.4,37.0,29.77,NNW,337,0.0,0.0,75,0.00,,,0.00,WUHU21623XXSP,2013-03-26 10:56:00,
2013-03-26 04:01:00,44.4,37.0,29.77,NNW,337,0.0,0.0,75,0.00,,,0.00,WUHU21623XXSP,2013-03-26 11:01:00,
2013-03-26 04:06:00,44.2,36.8,29.77,NNW,337,0.0,0.0,75,0.00,,,0.00,WUHU21623XXSP,2013-03-26 11:06:00,
2013-03-26 04:11:00,44.2,36.4,29.77,NNW,337,0.0,0.0,74,0.00,,,0.00,WUHU21623XXSP,2013-03-26 11:11:00,
2013-03-26 04:16:00,44.2,36.4,29.77,NNW,337,0.0,0.0,74,0.00,,,0.00,WUHU21623XXSP,2013-03-26 11:16:00,
2013-03-26 04:21:00,44.4,37.0,29.77,NNW,337,0.0,5.8,75,0.00,,,0.00,WUHU21623XXSP,2013-03-26 11:21:00,
2013-03-26 04:26:00,44.4,37.3,29.77,NNW,337,0.0,5.8,76,0.00,,,0.00,WUHU21623XXSP,2013-03-26 11:26:00,
2013-03-26 04:31:00,44.4,37.3,29.76,NNW,337,1.6,3.8,76,0.00,,,0.00,WUHU21623XXSP,2013-03-26 11:31:00,
2013-03-26 04:36:00,44.4,37.6,29.77,NNW,337,0.0,5.6,77,0.00,,,0.00,WUHU21623XXSP,2013-03-26 11:36:00,
2013-03-26 04:41:00,44.4,37.6,29.78,NNW,337,2.5,5.6,77,0.00,,,0.00,WUHU21623XXSP,2013-03-26 11:41:00,
2013-03-26 04:46:00,44.4,38.0,29.78,NNW,337,2.0,5.1,78,0.00,,,0.00,WUHU21623XXSP,2013-03-26 11:46:00,
2013-03-26 04:51:00,44.4,38.3,29.78,NNW,337,4.9,6.0,79,0.00,,,0.00,WUHU21623XXSP,2013-03-26 11:51:00,
2013-03-26 04:56:00,44.4,38.3,29.78,NNW,337,2.2,6.0,79,0.00,,,0.00,WUHU21623XXSP,2013-03-26 11:56:00,
2013-03-26 05:01:00,44.4,38.3,29.77,NNW,337,0.0,6.3,79,0.00,,,0.00,WUHU21623XXSP,2013-03-26 12:01:00,
2013-03-26 05:06:00,44.4,38.3,29.77,NNW,337,0.0,6.3,79,0.00,,,0.00,WUHU21623XXSP,2013-03-26 12:06:00,
2013-03-26 05:11:00,44.4,38.3,29.78,NNW,337,0.0,4.0,79,0.00,,,0.00,WUHU21623XXSP,2013-03-26 12:11:00,
2013-03-26 05:16:00,44.4,38.3,29.78,NNW,337,2.7,4.3,79,0.00,,,0.00,WUHU21623XXSP,2013-03-26 12:16:00,
2013-03-26 05:21:00,44.4,38.3,29.78,NNW,337,0.0,4.7,79,0.00,,,0.00,WUHU21623XXSP,2013-03-26 12:21:00,
2013-03-26 05:27:00,44.4,38.3,29.78,NNW,337,2.7,5.4,79,0.00,,,0.00,WUHU21623XXSP,2013-03-26 12:27:00,
2013-03-26 05:32:00,44.4,38.3,29.78,NNW,337,5.8,6.0,79,0.00,,,0.00,WUHU21623XXSP,2013-03-26 12:32:00,
2013-03-26 05:37:00,44.4,38.3,29.78,NNW,337,0.0,6.0,79,0.00,,,0.00,WUHU21623XXSP,2013-03-26 12:37:00,
2013-03-26 05:42:00,44.4,38.3,29.78,NNW,337,0.0,4.7,79,0.00,,,0.00,WUHU21623XXSP,2013-03-26 12:42:00,
2013-03-26 05:47:00,44.2,38.1,29.78,NNW,337,0.0,0.0,79,0.00,,,0.00,WUHU21623XXSP,2013-03-26 12:47:00,
2013-03-26 05:52:00,44.1,37.6,29.78,NNW,337,0.0,0.0,78,0.00,,,0.00,WUHU21623XXSP,2013-03-26 12:52:00,
2013-03-26 05:57:00,43.9,37.4,29.78,NNW,337,0.0,0.0,78,0.00,,,0.00,WUHU21623XXSP,2013-03-26 12:57:00,
2013-03-26 06:02:00,43.7,37.6,29.78,NNW,337,0.0,0.0,79,0.00,,,0.00,WUHU21623XXSP,2013-03-26 13:02:00,
2013-03-26 06:07:00,43.7,37.6,29.78,NNW,337,0.0,0.0,79,0.00,,,0.00,WUHU21623XXSP,2013-03-26 13:07:00,
2013-03-26 06:12:00,43.5,37.4,29.79,NNW,337,0.0,0.9,79,0.00,,,0.00,WUHU21623XXSP,2013-03-26 13:12:00,
2013-03-26 06:17:00,43.5,37.8,29.79,NNW,337,0.0,2.7,80,0.00,,,0.00,WUHU21623XXSP,2013-03-26 13:17:00,
2013-03-26 06:22:00,43.5,37.8,29.78,NNW,337,1.6,3.8,80,0.00,,,0.00,WUHU21623XXSP,2013-03-26 13:22:00,
2013-03-26 06:27:00,43.5,37.8,29.78,NNW,337,0.0,3.8,80,0.00,,,0.00,WUHU21623XXSP,2013-03-26 13:27:00,
2013-03-26 06:32:00,43.5,37.8,29.78,NNW,337,0.0,2.7,80,0.00,,,0.00,WUHU21623XXSP,2013-03-26 13:32:00,
2013-03-26 06:37:00,43.3,37.6,29.78,NNW,337,0.0,0.0,80,0.00,,,0.00,WUHU21623XXSP,2013-03-26 13:37:00,
2013-03-26 06:42:00,43.3,37.6,29.78,NNW,337,1.1,2.7,80,0.00,,,0.00,WUHU21623XXSP,2013-03-26 13:42:00,
2013-03-26 06:47:00,43.3,37.6,29.79,NNW,337,2.5,3.8,80,0.00,,,0.00,WUHU21623XXSP,2013-03-26 13:47:00,
2013-03-26 06:52:00,43.3,37.6,29.79,NNW,337,4.5,4.5,80,0.00,,,0.00,WUHU21623XXSP,2013-03-26 13:52:00,
2013-03-26 06:57:00,43.3,37.9,29.79,NNW,337,1.8,4.5,81,0.00,,,0.00,WUHU21623XXSP,2013-03-26 13:57:00,
2013-03-26 07:02:00,43.3,37.9,29.79,NNW,337,1.1,3.4,81,0.00,,,0.00,WUHU21623XXSP,2013-03-26 14:02:00,
2013-03-26 07:07:00,43.3,37.9,29.79,NNW,337,0.0,2.2,81,0.00,,,0.00,WUHU21623XXSP,2013-03-26 14:07:00,
2013-03-26 07:12:00,43.2,37.7,29.79,NNW,337,0.0,2.2,81,0.00,,,0.00,WUHU21623XXSP,2013-03-26 14:12:00,
2013-03-26 07:17:00,43.0,37.2,29.80,NNW,337,0.0,0.0,80,0.00,,,0.00,WUHU21623XXSP,2013-03-26 14:17:00,
2013-03-26 07:22:00,43.0,37.2,29.80,NNW,337,0.0,0.0,80,0.00,,,0.00,WUHU21623XXSP,2013-03-26 14:22:00,
2013-03-26 07:27:00,43.0,37.2,29.79,NNW,337,0.0,0.0,80,0.00,,,0.00,WUHU21623XXSP,2013-03-26 14:27:00,
2013-03-26 07:32:00,43.0,37.2,29.80,NNW,337,0.0,0.0,80,0.00,,,0.00,WUHU21623XXSP,2013-03-26 14:32:00,
2013-03-26 07:37:00,43.2,37.4,29.80,NNW,337,0.0,0.0,80,0.00,,,0.00,WUHU21623XXSP,2013-03-26 14:37:00,
2013-03-26 07:42:00,43.3,37.2,29.80,NNW,337,0.0,0.0,79,0.00,,,0.00,WUHU21623XXSP,2013-03-26 14:42:00,
2013-03-26 07:47:00,43.7,37.6,29.80,NNW,337,0.0,0.0,79,0.00,,,0.00,WUHU21623XXSP,2013-03-26 14:47:00,
2013-03-26 07:52:00,44.4,38.3,29.80,NNW,337,0.0,0.0,79,0.00,,,0.00,WUHU21623XXSP,2013-03-26 14:52:00,
2013-03-26 07:57:00,44.6,38.5,29.80,NNW,337,0.0,0.0,79,0.00,,,0.00,WUHU21623XXSP,2013-03-26 14:57:00,
2013-03-26 08:02:00,45.0,38.5,29.80,NNW,337,0.0,1.1,78,0.00,,,0.00,WUHU21623XXSP,2013-03-26 15:02:00,
2013-03-26 08:07:00,45.1,38.4,29.80,NNW,337,0.0,1.1,77,0.00,,,0.00,WUHU21623XXSP,2013-03-26 15:07:00,
2013-03-26 08:12:00,45.7,38.9,29.81,NNW,337,0.0,0.0,77,0.00,,,0.00,WUHU21623XXSP,2013-03-26 15:12:00,
2013-03-26 08:17:00,46.2,39.1,29.81,NNW,337,0.0,0.0,76,0.00,,,0.00,WUHU21623XXSP,2013-03-26 15:17:00,
2013-03-26 08:22:00,46.6,39.4,29.81,NNW,337,0.0,0.0,76,0.00,,,0.00,WUHU21623XXSP,2013-03-26 15:22:00,
2013-03-26 08:27:00,47.1,39.9,29.81,NNW,337,0.0,2.2,76,0.00,,,0.00,WUHU21623XXSP,2013-03-26 15:27:00,
2013-03-26 08:32:00,47.7,40.1,29.81,NNW,337,0.0,2.2,75,0.00,,,0.00,WUHU21623XXSP,2013-03-26 15:32:00,
2013-03-26 08:37:00,47.8,40.2,29.81,NNW,337,0.7,4.3,75,0.00,,,0.00,WUHU21623XXSP,2013-03-26 15:37:00,
2013-03-26 08:42:00,48.0,40.4,29.81,NNW,337,0.0,4.3,75,0.00,,,0.00,WUHU21623XXSP,2013-03-26 15:42:00,
2013-03-26 08:47:00,48.6,40.6,29.81,NNW,337,0.0,3.4,74,0.00,,,0.00,WUHU21623XXSP,2013-03-26 15:47:00,
2013-03-26 08:53:00,48.9,40.6,29.81,NNW,337,0.0,3.4,73,0.00,,,0.00,WUHU21623XXSP,2013-03-26 15:53:00,
2013-03-26 08:58:00,49.1,40.8,29.81,NNE,22,1.6,6.0,73,0.00,,,0.00,WUHU21623XXSP,2013-03-26 15:58:00,
2013-03-26 09:03:00,49.1,40.8,29.81,NNE,22,0.0,6.0,73,0.00,,,0.00,WUHU21623XXSP,2013-03-26 16:03:00,
2013-03-26 09:08:00,49.3,40.4,29.82,NNE,22,0.0,7.8,72,0.00,,,0.00,WUHU21623XXSP,2013-03-26 16:08:00,
2013-03-26 09:13:00,49.3,40.6,29.82,NE,45,1.3,7.8,72,0.00,,,0.00,WUHU21623XXSP,2013-03-26 16:13:00,
2013-03-26 09:18:00,49.6,41.0,29.82,NNE,22,0.0,4.3,72,0.00,,,0.00,WUHU21623XXSP,2013-03-26 16:18:00,
2013-03-26 09:23:00,50.2,41.2,29.82,NNE,22,0.0,4.3,71,0.00,,,0.00,WUHU21623XXSP,2013-03-26 16:23:00,
2013-03-26 09:28:00,50.7,41.7,29.81,NNE,22,0.0,1.6,71,0.00,,,0.00,WUHU21623XXSP,2013-03-26 16:28:00,
2013-03-26 09:33:00,51.3,41.9,29.82,NNE,22,0.0,0.7,70,0.00,,,0.00,WUHU21623XXSP,2013-03-26 16:33:00,
2013-03-26 09:38:00,51.4,41.7,29.81,NNE,22,0.0,0.7,69,0.00,,,0.00,WUHU21623XXSP,2013-03-26 16:38:00,
2013-03-26 09:43:00,52.2,42.4,29.81,WNW,292,0.0,2.2,69,0.00,,,0.00,WUHU21623XXSP,2013-03-26 16:43:00,
2013-03-26 09:48:00,52.5,41.9,29.81,NW,315,0.9,2.2,67,0.00,,,0.00,WUHU21623XXSP,2013-03-26 16:48:00,
2013-03-26 09:53:00,52.7,42.0,29.81,NW,315,0.0,2.9,67,0.00,,,0.00,WUHU21623XXSP,2013-03-26 16:53:00,
2013-03-26 09:58:00,53.2,42.1,29.81,NW,315,0.0,2.9,66,0.00,,,0.00,WUHU21623XXSP,2013-03-26 16:58:00,
2013-03-26 10:03:00,53.6,41.9,29.81,NE,45,0.0,2.5,65,0.00,,,0.00,WUHU21623XXSP,2013-03-26 17:03:00,
2013-03-26 10:08:00,53.8,41.8,29.81,NE,45,1.6,2.5,64,0.00,,,0.00,WUHU21623XXSP,2013-03-26 17:08:00,
2013-03-26 10:13:00,54.3,42.4,29.81,North,0,0.0,3.8,64,0.00,,,0.00,WUHU21623XXSP,2013-03-26 17:13:00,
2013-03-26 10:18:00,55.0,43.0,29.81,WSW,247,0.0,3.8,64,0.00,,,0.00,WUHU21623XXSP,2013-03-26 17:18:00,
2013-03-26 10:23:00,55.6,43.1,29.81,NNW,337,0.0,3.1,63,0.00,,,0.00,WUHU21623XXSP,2013-03-26 17:23:00,
2013-03-26 10:28:00,55.9,42.7,29.81,ENE,67,0.0,3.1,61,0.00,,,0.00,WUHU21623XXSP,2013-03-26 17:28:00,
2013-03-26 10:33:00,56.5,43.2,29.80,SSW,202,0.0,0.9,61,0.00,,,0.00,WUHU21623XXSP,2013-03-26 17:33:00,
2013-03-26 10:38:00,56.8,43.2,29.80,NE,45,0.0,2.2,60,0.00,,,0.00,WUHU21623XXSP,2013-03-26 17:38:00,
2013-03-26 10:43:00,57.0,42.9,29.80,NE,45,0.0,2.2,59,0.00,,,0.00,WUHU21623XXSP,2013-03-26 17:43:00,
2013-03-26 10:48:00,57.7,43.5,29.80,South,180,0.0,0.7,59,0.00,,,0.00,WUHU21623XXSP,2013-03-26 17:48:00,
2013-03-26 10:53:00,58.8,44.0,29.80,SSW,202,0.0,2.2,58,0.00,,,0.00,WUHU21623XXSP,2013-03-26 17:53:00,
2013-03-26 10:58:00,59.4,44.1,29.79,South,180,0.0,2.2,57,0.00,,,0.00,WUHU21623XXSP,2013-03-26 17:58:00,
2013-03-26 11:03:00,59.9,43.5,29.80,NNE,22,0.0,3.8,55,0.00,,,0.00,WUHU21623XXSP,2013-03-26 18:03:00,
2013-03-26 11:08:00,60.1,43.8,29.80,NE,45,0.4,3.8,55,0.00,,,0.00,WUHU21623XXSP,2013-03-26 18:08:00,
2013-03-26 11:13:00,60.4,43.7,29.79,SSW,202,0.0,1.8,54,0.00,,,0.00,WUHU21623XXSP,2013-03-26 18:13:00,
2013-03-26 11:18:00,61.3,44.0,29.79,WNW,292,0.0,2.5,53,0.00,,,0.00,WUHU21623XXSP,2013-03-26 18:18:00,
2013-03-26 11:23:00,61.9,44.0,29.79,WSW,247,1.3,3.6,52,0.00,,,0.00,WUHU21623XXSP,2013-03-26 18:23:00,
2013-03-26 11:28:00,62.4,44.0,29.79,NNW,337,0.9,3.6,51,0.00,,,0.00,WUHU21623XXSP,2013-03-26 18:28:00,
2013-03-26 11:33:00,63.0,44.0,29.79,WSW,247,0.0,3.8,50,0.00,,,0.00,WUHU21623XXSP,2013-03-26 18:33:00,
2013-03-26 11:38:00,63.5,43.4,29.79,North,0,0.7,4.5,48,0.00,,,0.00,WUHU21623XXSP,2013-03-26 18:38:00,
2013-03-26 11:43:00,63.9,43.5,29.79,NW,315,1.6,4.5,47,0.00,,,0.00,WUHU21623XXSP,2013-03-26 18:43:00,
2013-03-26 11:48:00,64.2,43.4,29.79,SSE,157,2.2,2.2,47,0.00,,,0.00,WUHU21623XXSP,2013-03-26 18:48:00,
2013-03-26 11:53:00,64.6,43.2,29.79,South,180,0.0,3.1,46,0.00,,,0.00,WUHU21623XXSP,2013-03-26 18:53:00,
2013-03-26 11:58:00,64.9,42.9,29.79,NNW,337,0.9,3.1,45,0.00,,,0.00,WUHU21623XXSP,2013-03-26 18:58:00,
2013-03-26 12:03:00,65.1,42.5,29.79,NNW,337,0.0,3.1,44,0.00,,,0.00,WUHU21623XXSP,2013-03-26 19:03:00,
2013-03-26 12:08:00,65.1,41.4,29.78,ENE,67,2.0,3.1,42,0.00,,,0.00,WUHU21623XXSP,2013-03-26 19:08:00,
2013-03-26 12:13:00,65.5,42.3,29.78,North,0,0.0,2.9,43,0.00,,,0.00,WUHU21623XXSP,2013-03-26 19:13:00,
2013-03-26 12:18:00,65.8,41.4,29.78,NNE,22,4.0,5.4,41,0.00,,,0.00,WUHU21623XXSP,2013-03-26 19:18:00,
2013-03-26 12:23:00,66.4,42.5,29.78,NE,45,0.0,5.4,42,0.00,,,0.00,WUHU21623XXSP,2013-03-26 19:23:00,
2013-03-26 12:28:00,66.7,42.9,29.78,SSW,202,0.2,5.1,42,0.00,,,0.00,WUHU21623XXSP,2013-03-26 19:28:00,
2013-03-26 12:33:00,67.6,43.1,29.78,SSE,157,2.5,5.1,41,0.00,,,0.00,WUHU21623XXSP,2013-03-26 19:33:00,
2013-03-26 12:38:00,68.2,41.9,29.77,ENE,67,1.1,5.8,39,0.00,,,0.00,WUHU21623XXSP,2013-03-26 19:38:00,
2013-03-26 12:43:00,68.2,41.5,29.77,SSE,157,1.8,5.8,38,0.00,,,0.00,WUHU21623XXSP,2013-03-26 19:43:00,
2013-03-26 12:48:00,68.5,41.8,29.77,NNE,22,1.8,6.7,38,0.00,,,0.00,WUHU21623XXSP,2013-03-26 19:48:00,
2013-03-26 12:53:00,68.5,41.1,29.76,NNW,337,1.3,6.7,37,0.00,,,0.00,WUHU21623XXSP,2013-03-26 19:53:00,
2013-03-26 12:58:00,68.7,42.0,29.76,SSE,157,0.0,5.4,38,0.00,,,0.00,WUHU21623XXSP,2013-03-26 19:58:00,
2013-03-26 13:03:00,69.4,41.9,29.76,NW,315,0.0,2.5,37,0.00,,,0.00,WUHU21623XXSP,2013-03-26 20:03:00,
2013-03-26 13:08:00,69.6,42.0,29.76,NNE,22,2.0,2.9,37,0.00,,,0.00,WUHU21623XXSP,2013-03-26 20:08:00,
2013-03-26 13:13:00,69.8,41.5,29.75,NNW,337,2.0,3.4,36,0.00,,,0.00,WUHU21623XXSP,2013-03-26 20:13:00,
2013-03-26 13:18:00,70.0,41.6,29.75,ENE,67,0.0,4.0,36,0.00,,,0.00,WUHU21623XXSP,2013-03-26 20:18:00,
2013-03-26 13:23:00,70.3,41.2,29.75,East,90,0.0,4.0,35,0.00,,,0.00,WUHU21623XXSP,2013-03-26 20:23:00,
2013-03-26 13:28:00,70.7,40.8,29.75,NNE,22,3.1,4.9,34,0.00,,,0.00,WUHU21623XXSP,2013-03-26 20:28:00,
2013-03-26 13:33:00,70.9,39.5,29.75,NE,45,1.8,6.3,32,0.00,,,0.00,WUHU21623XXSP,2013-03-26 20:33:00,
2013-03-26 13:38:00,71.2,39.8,29.74,NE,45,1.3,6.3,32,0.00,,,0.00,WUHU21623XXSP,2013-03-26 20:38:00,
2013-03-26 13:43:00,71.8,39.5,29.75,NNE,22,0.0,4.3,31,0.00,,,0.00,WUHU21623XXSP,2013-03-26 20:43:00,
2013-03-26 13:48:00,72.1,39.8,29.74,NNW,337,0.0,5.1,31,0.00,,,0.00,WUHU21623XXSP,2013-03-26 20:48:00,
2013-03-26 13:53:00,72.3,40.0,29.74,NE,45,1.8,5.1,31,0.00,,,0.00,WUHU21623XXSP,2013-03-26 20:53:00,
2013-03-26 13:58:00,72.9,40.4,29.73,ESE,112,1.1,2.5,31,0.00,,,0.00,WUHU21623XXSP,2013-03-26 20:58:00,
2013-03-26 14:03:00,73.4,41.6,29.73,SE,135,2.2,3.4,32,0.00,,,0.00,WUHU21623XXSP,2013-03-26 21:03:00,
2013-03-26 14:08:00,74.5,41.8,29.73,SSE,157,2.5,4.5,31,0.00,,,0.00,WUHU21623XXSP,2013-03-26 21:08:00,
2013-03-26 14:13:00,75.0,41.6,29.72,SE,135,0.0,4.5,30,0.00,,,0.00,WUHU21623XXSP,2013-03-26 21:13:00,
2013-03-26 14:18:00,75.4,40.8,29.72,NE,45,0.7,4.0,29,0.00,,,0.00,WUHU21623XXSP,2013-03-26 21:18:00,
2013-03-26 14:23:00,75.4,39.8,29.71,SE,135,0.0,3.1,28,0.00,,,0.00,WUHU21623XXSP,2013-03-26 21:23:00,
2013-03-26 14:28:00,75.7,40.1,29.72,NW,315,2.7,5.6,28,0.00,,,0.00,WUHU21623XXSP,2013-03-26 21:28:00,
2013-03-26 14:33:00,75.7,39.1,29.71,NW,315,0.0,5.6,27,0.00,,,0.00,WUHU21623XXSP,2013-03-26 21:33:00,
2013-03-26 14:38:00,75.9,39.3,29.71,NNW,337,2.0,5.6,27,0.00,,,0.00,WUHU21623XXSP,2013-03-26 21:38:00,
2013-03-26 14:43:00,76.1,39.4,29.71,NNW,337,2.9,6.3,27,0.00,,,0.00,WUHU21623XXSP,2013-03-26 21:43:00,
2013-03-26 14:48:00,76.3,40.6,29.71,NW,315,0.0,6.3,28,0.00,,,0.00,WUHU21623XXSP,2013-03-26 21:48:00,
2013-03-26 14:53:00,76.6,39.9,29.71,ENE,67,0.0,4.3,27,0.00,,,0.00,WUHU21623XXSP,2013-03-26 21:53:00,
2013-03-26 14:58:00,76.6,39.9,29.71,NE,45,0.0,4.3,27,0.00,,,0.00,WUHU21623XXSP,2013-03-26 21:58:00,
2013-03-26 15:04:00,76.8,40.0,29.71,WSW,247,0.0,2.7,27,0.00,,,0.00,WUHU21623XXSP,2013-03-26 22:04:00,
2013-03-26 15:09:00,77.2,38.3,29.71,North,0,0.0,3.8,25,0.00,,,0.00,WUHU21623XXSP,2013-03-26 22:09:00,
2013-03-26 15:14:00,76.8,38.0,29.70,NE,45,2.7,4.7,25,0.00,,,0.00,WUHU21623XXSP,2013-03-26 22:14:00,
2013-03-26 15:19:00,76.8,40.0,29.70,NNW,337,0.0,8.1,27,0.00,,,0.00,WUHU21623XXSP,2013-03-26 22:19:00,
2013-03-26 15:24:00,77.2,40.4,29.70,NW,315,0.0,8.1,27,0.00,,,0.00,WUHU21623XXSP,2013-03-26 22:24:00,
2013-03-26 15:29:00,77.7,40.8,29.69,NNE,22,2.7,5.4,27,0.00,,,0.00,WUHU21623XXSP,2013-03-26 22:29:00,
2013-03-26 15:34:00,77.5,40.6,29.70,NE,45,2.2,5.1,27,0.00,,,0.00,WUHU21623XXSP,2013-03-26 22:34:00,
2013-03-26 15:39:00,77.5,41.7,29.70,North,0,0.0,4.9,28,0.00,,,0.00,WUHU21623XXSP,2013-03-26 22:39:00,
2013-03-26 15:44:00,77.9,40.9,29.69,NNE,22,0.0,5.1,27,0.00,,,0.00,WUHU21623XXSP,2013-03-26 22:44:00,
2013-03-26 15:49:00,78.1,41.1,29.69,NW,315,0.0,5.1,27,0.00,,,0.00,WUHU21623XXSP,2013-03-26 22:49:00,
2013-03-26 15:54:00,78.4,41.4,29.69,SSW,202,2.7,6.0,27,0.00,,,0.00,WUHU21623XXSP,2013-03-26 22:54:00,
2013-03-26 15:59:00,79.5,43.3,29.69,SSE,157,2.2,8.1,28,0.00,,,0.00,WUHU21623XXSP,2013-03-26 22:59:00,
2013-03-26 16:04:00,80.8,44.5,29.69,South,180,0.0,8.1,28,0.00,,,0.00,WUHU21623XXSP,2013-03-26 23:04:00,
2013-03-26 16:09:00,81.5,44.0,29.69,West,270,2.2,7.4,27,0.00,,,0.00,WUHU21623XXSP,2013-03-26 23:09:00,
2013-03-26 16:14:00,81.7,44.1,29.69,WNW,292,0.0,7.4,27,0.00,,,0.00,WUHU21623XXSP,2013-03-26 23:14:00,
2013-03-26 16:19:00,81.7,44.1,29.68,North,0,0.0,6.9,27,0.00,,,0.00,WUHU21623XXSP,2013-03-26 23:19:00,
2013-03-26 16:24:00,81.0,43.6,29.68,NNE,22,2.2,6.9,27,0.00,,,0.00,WUHU21623XXSP,2013-03-26 23:24:00,
2013-03-26 16:29:00,80.1,42.8,29.68,North,0,0.0,4.9,27,0.00,,,0.00,WUHU21623XXSP,2013-03-26 23:29:00,
2013-03-26 16:34:00,80.4,44.1,29.68,SW,225,2.9,6.5,28,0.00,,,0.00,WUHU21623XXSP,2013-03-26 23:34:00,
2013-03-26 16:39:00,81.3,44.9,29.68,SW,225,0.0,6.5,28,0.00,,,0.00,WUHU21623XXSP,2013-03-26 23:39:00,
2013-03-26 16:44:00,82.2,45.6,29.68,North,0,0.0,5.1,28,0.00,,,0.00,WUHU21623XXSP,2013-03-26 23:44:00,
2013-03-26 16:49:00,82.0,45.5,29.68,WSW,247,0.0,4.0,28,0.00,,,0.00,WUHU21623XXSP,2013-03-26 23:49:00,
2013-03-26 16:54:00,82.8,47.1,29.67,NNW,337,0.0,2.7,29,0.00,,,0.00,WUHU21623XXSP,2013-03-26 23:54:00,
2013-03-26 16:59:00,84.0,47.2,29.67,West,270,0.0,3.8,28,0.00,,,0.00,WUHU21623XXSP,2013-03-26 23:59:00,
2013-03-26 17:04:00,83.5,46.7,29.67,West,270,0.0,3.8,28,0.00,,,0.00,WUHU21623XXSP,2013-03-27 00:04:00,
2013-03-26 17:09:00,82.8,46.1,29.67,West,270,0.0,4.0,28,0.00,,,0.00,WUHU21623XXSP,2013-03-27 00:09:00,
2013-03-26 17:14:00,82.2,46.7,29.67,NNW,337,0.0,7.2,29,0.00,,,0.00,WUHU21623XXSP,2013-03-27 00:14:00,
2013-03-26 17:19:00,81.5,46.1,29.67,South,180,0.0,7.2,29,0.00,,,0.00,WUHU21623XXSP,2013-03-27 00:19:00,
2013-03-26 17:24:00,80.8,45.5,29.67,SE,135,4.0,6.3,29,0.00,,,0.00,WUHU21623XXSP,2013-03-27 00:24:00,
2013-03-26 17:29:00,80.2,46.9,29.67,SW,225,2.9,8.9,31,0.00,,,0.00,WUHU21623XXSP,2013-03-27 00:29:00,
2013-03-26 17:34:00,79.5,47.0,29.66,SSE,157,6.3,10.1,32,0.00,,,0.00,WUHU21623XXSP,2013-03-27 00:34:00,
2013-03-26 17:39:00,78.8,47.1,29.67,SSE,157,3.8,10.1,33,0.00,,,0.00,WUHU21623XXSP,2013-03-27 00:39:00,
2013-03-26 17:44:00,78.4,46.8,29.67,SSE,157,8.7,10.5,33,0.00,,,0.00,WUHU21623XXSP,2013-03-27 00:44:00,
2013-03-26 17:49:00,78.3,48.2,29.67,SSW,202,7.8,10.5,35,0.00,,,0.00,WUHU21623XXSP,2013-03-27 00:49:00,
2013-03-26 17:54:00,78.3,48.2,29.67,South,180,7.2,11.0,35,0.00,,,0.00,WUHU21623XXSP,2013-03-27 00:54:00,
2013-03-26 17:59:00,78.4,48.3,29.67,South,180,6.0,11.0,35,0.00,,,0.00,WUHU21623XXSP,2013-03-27 00:59:00,
2013-03-26 18:04:00,78.3,48.2,29.67,South,180,1.6,11.0,35,0.00,,,0.00,WUHU21623XXSP,2013-03-27 01:04:00,
2013-03-26 18:09:00,78.3,48.2,29.67,SSW,202,0.0,10.1,35,0.00,,,0.00,WUHU21623XXSP,2013-03-27 01:09:00,
2013-03-26 18:14:00,78.1,48.8,29.67,South,180,3.6,9.2,36,0.00,,,0.00,WUHU21623XXSP,2013-03-27 01:14:00,
2013-03-26 18:19:00,77.7,48.5,29.68,SSE,157,0.0,7.6,36,0.00,,,0.00,WUHU21623XXSP,2013-03-27 01:19:00,
2013-03-26 18:24:00,77.2,48.0,29.67,SSW,202,2.9,6.5,36,0.00,,,0.00,WUHU21623XXSP,2013-03-27 01:24:00,
2013-03-26 18:29:00,76.6,47.6,29.68,SSW,202,0.0,5.6,36,0.00,,,0.00,WUHU21623XXSP,2013-03-27 01:29:00,
2013-03-26 18:34:00,76.1,47.8,29.68,West,270,0.0,7.8,37,0.00,,,0.00,WUHU21623XXSP,2013-03-27 01:34:00,
2013-03-26 18:39:00,75.6,47.3,29.68,South,180,0.0,7.8,37,0.00,,,0.00,WUHU21623XXSP,2013-03-27 01:39:00,
2013-03-26 18:44:00,74.8,46.7,29.69,West,270,0.0,3.1,37,0.00,,,0.00,WUHU21623XXSP,2013-03-27 01:44:00,
2013-03-26 18:49:00,74.1,46.0,29.69,West,270,0.0,5.1,37,0.00,,,0.00,WUHU21623XXSP,2013-03-27 01:49:00,
2013-03-26 18:54:00,73.4,46.1,29.69,NW,315,1.6,5.1,38,0.00,,,0.00,WUHU21623XXSP,2013-03-27 01:54:00,
2013-03-26 18:59:00,72.7,45.5,29.69,WNW,292,0.0,3.8,38,0.00,,,0.00,WUHU21623XXSP,2013-03-27 01:59:00,
2013-03-26 19:04:00,72.1,45.0,29.69,NW,315,0.0,3.1,38,0.00,,,0.00,WUHU21623XXSP,2013-03-27 02:04:00,
2013-03-26 19:09:00,71.4,44.4,29.69,NW,315,1.8,5.6,38,0.00,,,0.00,WUHU21623XXSP,2013-03-27 02:09:00,
2013-03-26 19:14:00,70.9,45.4,29.69,NW,315,5.4,8.5,40,0.00,,,0.00,WUHU21623XXSP,2013-03-27 02:14:00,
2013-03-26 19:19:00,70.2,44.7,29.69,NNW,337,7.6,10.3,40,0.00,,,0.00,WUHU21623XXSP,2013-03-27 02:19:00,
2013-03-26 19:24:00,69.4,44.7,29.70,NNW,337,2.7,10.3,41,0.00,,,0.00,WUHU21623XXSP,2013-03-27 02:24:00,
2013-03-26 19:29:00,68.5,44.5,29.70,NW,315,0.0,8.3,42,0.00,,,0.00,WUHU21623XXSP,2013-03-27 02:29:00,
2013-03-26 19:34:00,67.8,44.4,29.70,NNW,337,5.1,8.5,43,0.00,,,0.00,WUHU21623XXSP,2013-03-27 02:34:00,
2013-03-26 19:39:00,67.1,43.8,29.71,North,0,0.0,11.0,43,0.00,,,0.00,WUHU21623XXSP,2013-03-27 02:39:00,
2013-03-26 19:44:00,66.4,43.7,29.71,NNW,337,4.0,11.0,44,0.00,,,0.00,WUHU21623XXSP,2013-03-27 02:44:00,
2013-03-26 19:49:00,65.8,43.8,29.71,NNE,22,3.4,7.8,45,0.00,,,0.00,WUHU21623XXSP,2013-03-27 02:49:00,
2013-03-26 19:54:00,65.1,43.7,29.71,North,0,0.0,10.5,46,0.00,,,0.00,WUHU21623XXSP,2013-03-27 02:54:00,
2013-03-26 19:59:00,64.4,43.6,29.72,NNE,22,1.6,10.5,47,0.00,,,0.00,WUHU21623XXSP,2013-03-27 02:59:00,
2013-03-26 20:04:00,63.7,43.5,29.72,NNE,22,1.1,14.8,48,0.00,,,0.00,WUHU21623XXSP,2013-03-27 03:04:00,
2013-03-26 20:09:00,63.3,43.8,29.72,NNE,22,0.0,14.8,49,0.00,,,0.00,WUHU21623XXSP,2013-03-27 03:09:00,
2013-03-26 20:14:00,62.6,43.7,29.73,NW,315,11.9,13.0,50,0.00,,,0.00,WUHU21623XXSP,2013-03-27 03:14:00,
2013-03-26 20:19:00,62.1,43.2,29.73,NNW,337,6.5,14.5,50,0.00,,,0.00,WUHU21623XXSP,2013-03-27 03:19:00,
2013-03-26 20:24:00,61.5,42.7,29.73,NNW,337,6.5,14.5,50,0.00,,,0.00,WUHU21623XXSP,2013-03-27 03:24:00,
2013-03-26 20:29:00,61.2,42.9,29.73,NNW,337,1.8,10.5,51,0.00,,,0.00,WUHU21623XXSP,2013-03-27 03:29:00,
2013-03-26 20:34:00,60.6,42.9,29.73,North,0,0.0,10.5,52,0.00,,,0.00,WUHU21623XXSP,2013-03-27 03:34:00,
2013-03-26 20:39:00,60.1,42.9,29.74,NNW,337,0.0,11.9,53,0.00,,,0.00,WUHU21623XXSP,2013-03-27 03:39:00,
2013-03-26 20:44:00,59.5,42.4,29.74,NNW,337,3.6,11.9,53,0.00,,,0.00,WUHU21623XXSP,2013-03-27 03:44:00,
2013-03-26 20:49:00,59.2,42.0,29.74,NNW,337,2.7,11.6,53,0.00,,,0.00,WUHU21623XXSP,2013-03-27 03:49:00,
2013-03-26 20:54:00,58.8,42.2,29.74,NNW,337,3.1,8.1,54,0.00,,,0.00,WUHU21623XXSP,2013-03-27 03:54:00,
2013-03-26 20:59:00,58.3,42.3,29.74,NNW,337,6.0,10.7,55,0.00,,,0.00,WUHU21623XXSP,2013-03-27 03:59:00,
2013-03-26 21:04:00,57.9,42.3,29.75,NW,315,11.6,11.9,56,0.00,,,0.00,WUHU21623XXSP,2013-03-27 04:04:00,
2013-03-26 21:09:00,57.6,42.0,29.74,NW,315,4.7,11.9,56,0.00,,,0.00,WUHU21623XXSP,2013-03-27 04:09:00,
2013-03-26 21:14:00,57.0,41.5,29.75,NNW,337,6.5,12.5,57,0.00,,,0.00,WUHU21623XXSP,2013-03-27 04:14:00,
2013-03-26 21:19:00,56.5,41.4,29.75,NNW,337,4.3,12.5,57,0.00,,,0.00,WUHU21623XXSP,2013-03-27 04:19:00,
2013-03-26 21:24:00,56.3,41.7,29.75,NW,315,3.6,10.7,58,0.00,,,0.00,WUHU21623XXSP,2013-03-27 04:24:00,
2013-03-26 21:29:00,55.9,41.3,29.76,NW,315,5.1,10.3,58,0.00,,,0.00,WUHU21623XXSP,2013-03-27 04:29:00,
2013-03-26 21:34:00,55.6,41.4,29.76,NW,315,9.8,11.9,59,0.00,,,0.00,WUHU21623XXSP,2013-03-27 04:34:00,
2013-03-26 21:39:00,55.2,41.1,29.76,NNW,337,4.3,11.9,59,0.00,,,0.00,WUHU21623XXSP,2013-03-27 04:39:00,
2013-03-26 21:44:00,54.9,40.8,29.76,NNW,337,4.5,8.1,59,0.00,,,0.00,WUHU21623XXSP,2013-03-27 04:44:00,
2013-03-26 21:49:00,54.5,40.9,29.76,NNW,337,0.9,8.9,60,0.00,,,0.00,WUHU21623XXSP,2013-03-27 04:49:00,
2013-03-26 21:54:00,54.3,40.7,29.76,NNW,337,2.0,8.9,60,0.00,,,0.00,WUHU21623XXSP,2013-03-27 04:54:00,
2013-03-26 21:59:00,54.0,40.8,29.76,NW,315,3.8,6.7,61,0.00,,,0.00,WUHU21623XXSP,2013-03-27 04:59:00,
2013-03-26 22:04:00,53.8,40.7,29.76,NNW,337,5.6,7.8,61,0.00,,,0.00,WUHU21623XXSP,2013-03-27 05:04:00,
2013-03-26 22:09:00,53.4,40.7,29.76,North,0,4.3,10.5,62,0.00,,,0.00,WUHU21623XXSP,2013-03-27 05:09:00,
2013-03-26 22:14:00,53.2,40.5,29.77,NW,315,2.5,10.5,62,0.00,,,0.00,WUHU21623XXSP,2013-03-27 05:14:00,
2013-03-26 22:19:00,53.2,40.1,29.77,NNW,337,6.5,9.6,61,0.00,,,0.00,WUHU21623XXSP,2013-03-27 05:19:00,
2013-03-26 22:25:00,52.9,40.2,29.77,NNW,337,3.6,7.8,62,0.00,,,0.00,WUHU21623XXSP,2013-03-27 05:25:00,
2013-03-26 22:30:00,52.9,40.2,29.77,NNW,337,0.9,7.8,62,0.00,,,0.00,WUHU21623XXSP,2013-03-27 05:30:00,
2013-03-26 22:35:00,52.7,40.0,29.77,NNW,337,1.8,7.4,62,0.00,,,0.00,WUHU21623XXSP,2013-03-27 05:35:00,
2013-03-26 22:40:00,52.5,39.8,29.77,NNW,337,1.8,10.3,62,0.00,,,0.00,WUHU21623XXSP,2013-03-27 05:40:00,
2013-03-26 22:45:00,52.3,40.1,29.77,NNW,337,0.0,10.3,63,0.00,,,0.00,WUHU21623XXSP,2013-03-27 05:45:00,
2013-03-26 22:50:00,52.2,39.5,29.77,NNW,337,2.2,8.5,63,0.00,,,0.00,WUHU21623XXSP,2013-03-27 05:50:00,
2013-03-26 22:55:00,52.0,39.7,29.76,NNW,337,3.1,9.8,63,0.00,,,0.00,WUHU21623XXSP,2013-03-27 05:55:00,
2013-03-26 23:00:00,52.0,39.7,29.77,NW,315,3.8,9.8,63,0.00,,,0.00,WUHU21623XXSP,2013-03-27 06:00:00,
2013-03-26 23:05:00,51.6,39.4,29.77,NNW,337,0.4,8.9,63,0.00,,,0.00,WUHU21623XXSP,2013-03-27 06:05:00,
2013-03-26 23:10:00,51.6,39.4,29.77,NNW,337,3.6,8.9,63,0.00,,,0.00,WUHU21623XXSP,2013-03-27 06:10:00,
2013-03-26 23:15:00,51.6,39.8,29.77,North,0,5.1,9.2,64,0.00,,,0.00,WUHU21623XXSP,2013-03-27 06:15:00,
2013-03-26 23:20:00,51.4,39.6,29.77,NNW,337,3.4,14.1,64,0.00,,,0.00,WUHU21623XXSP,2013-03-27 06:20:00,
2013-03-26 23:25:00,51.4,40.0,29.77,North,0,11.0,14.1,65,0.00,,,0.00,WUHU21623XXSP,2013-03-27 06:25:00,
2013-03-26 23:30:00,51.3,39.8,29.77,NNW,337,2.7,14.3,65,0.00,,,0.00,WUHU21623XXSP,2013-03-27 06:30:00,
2013-03-26 23:35:00,51.1,39.7,29.77,NNW,337,2.7,14.3,65,0.00,,,0.00,WUHU21623XXSP,2013-03-27 06:35:00,
2013-03-26 23:40:00,51.1,39.7,29.77,NNW,337,2.0,8.9,65,0.00,,,0.00,WUHU21623XXSP,2013-03-27 06:40:00,
2013-03-26 23:45:00,50.9,39.5,29.78,NNW,337,3.4,9.8,65,0.00,,,0.00,WUHU21623XXSP,2013-03-27 06:45:00,
2013-03-26 23:50:00,50.9,39.9,29.78,NNW,337,1.3,9.8,66,0.00,,,0.00,WUHU21623XXSP,2013-03-27 06:50:00,
2013-03-26 23:55:00,50.7,39.7,29.77,NNW,337,2.5,7.8,66,0.00,,,0.00,WUHU21623XXSP,2013-03-27 06:55:00,